Regional Weather Roundup
Issued by NWS

Home | Current Version | Previous Version | Graphics & Text | Print | Product List | Glossary On
Versions: 1 2 3 4 5 6 7 8 9 10 11 12 13 14 15 16 17 18 19 20 21 22 23 24 25 26 27 28 29 30 31 32 33 34 35 36 37 38 39 40 41 42 43 44 45 46 47 48 49 50
000
ASUS43 KDTX 181910
RWRMI
MICHIGAN HOURLY REGIONAL WEATHER ROUNDUP
NATIONAL WEATHER SERVICE DETROIT/PONTIAC MI
ISSUED BY NATIONAL WEATHER SERVICE GRAND RAPIDS MI
300 PM EDT FRI AUG 18 2017

NOTE: "FAIR" INDICATES FEW OR NO CLOUDS BELOW 12,000 FEET WITH NO
SIGNIFICANT WEATHER AND/OR OBSTRUCTION TO VISIBILITY.

MIZ047>049-052>055-059>063-066>070-074>076-081>083-182000-
SOUTHEAST LOWER MICHIGAN

CITY           SKY/WX    TMP DP  RH WIND       PRES   REMARKS
ADRIAN         CLOUDY    75  62  64 W13G25    29.84R
ALMA           CLOUDY    71  60  69 W16G26    29.80R
ANN ARBOR      PTSUNNY   78  61  55 W21G29    29.81R
BAD AXE        CLOUDY    72  62  71 W16       29.74R
DETROIT CITY   CLOUDY    75  60  59 W12G21    29.79R
DETROIT        CLOUDY    78  62  57 W15G24    29.80S
FLINT          CLOUDY    72  62  71 W13       29.79R
GROSSE ILE     CLOUDY    78  62  57 W15       29.79R
HILLSDALE      CLOUDY    73  59  60 W13G23    29.85S
HOWELL         CLOUDY    74  60  61 W15G22    29.81R

CITY           SKY/WX    TMP DP  RH WIND       PRES   REMARKS
JACKSON        CLOUDY    74  60  61 W12G23    29.83R
LANSING        CLOUDY    73  60  63 W20G26    29.82R
MASON          CLOUDY    73  60  63 W14G24    29.83R
MONROE         CLOUDY    78  64  61 W13G21    29.81R
MT. CLEMENS    PTSUNNY   77  63  63 W15G22    29.77R
PONTIAC        CLOUDY    73  61  65 W22G32    29.79R
PORT HOPE        N/A     72  63  73 SW12G20   29.70R
PORT HURON     CLOUDY    75  63  64 W10G17    29.77R
TRI CITIES     CLOUDY    71  63  75 W22G29    29.77R
YPSILANTI      CLOUDY    78  63  59 W18G31    29.81R
$$
MIZ043>046-050>051-056>058-064>065-071>073-077>080-182000-
SOUTHWEST LOWER MICHIGAN

CITY           SKY/WX    TMP DP  RH WIND       PRES   REMARKS
BATTLE CREEK   CLOUDY    73  62  68 W14       29.86R
BENTON HARBOR  CLOUDY    75  60  59 W13       29.87S
BIG RAPIDS     CLOUDY    66  60  79 NW8G18    29.80R
COLDWATER      CLOUDY    74  61  64 W14       29.86S
HOLLAND        CLOUDY    71  60  68 W13G21    29.85R
GRAND RAPIDS   CLOUDY    71  60  68 W13G24    29.82S
KALAMAZOO      CLOUDY    73  59  61 W14       29.86R
MARSHALL       CLOUDY    74  61  65 W16       29.84S
MOUNT PLEASANT CLOUDY    71  60  69 W12G21    29.78R
MUSKEGON       CLOUDY    72  60  66 W15       29.82F
STURGIS        CLOUDY    74  61  63 W13G18    29.86S
$$
MIZ016>042-182000-
NORTHERN LOWER MICHIGAN

CITY           SKY/WX    TMP DP  RH WIND       PRES   REMARKS
ALPENA         CLOUDY    68  63  84 W16G23    29.68R
BEAVER ISLAND  CLOUDY    63  59  87 W10G16    29.74R
BELLAIRE       DRIZZLE   63  61  92 W3        29.75R
CADILLAC       CLOUDY    67  61  83 W10G16    29.78R
CHARLEVOIX     CLOUDY    64  60  86 W15G22    29.76S
GAYLORD        LGT RAIN  61  58  90 W9        29.74R FOG
HOUGHTON LAKE  CLOUDY    67  60  78 W14G23    29.76R
MANISTEE       CLOUDY    70  61  73 W16       29.78S
OSCODA         CLOUDY    74  62  66 W16G22    29.68R
PELLSTON       CLOUDY    64  59  83 W18       29.71R
TRAVERSE CITY  CLOUDY    66  61  84 W12       29.75R
LUDINGTON      CLOUDY    70  60  71 W10G21    29.80R
$$
MIZ007>008-015-182000-
EASTERN UPPER MICHIGAN

CITY           SKY/WX    TMP DP  RH WIND       PRES   REMARKS
KINROSS        CLOUDY    62  59  90 W16G23    29.67R
MACKINAC ISLAN CLOUDY    63  62  97 W17G23    29.69R
NEWBERRY       CLOUDY    60  59  97 W13       29.71R
S. S. MARIE    CLOUDY    61  59  93 W13G22    29.65R FOG
$$
MIZ004>006-011>014-085-182000-
CENTRAL UPPER MICHIGAN

CITY           SKY/WX    TMP DP  RH WIND       PRES   REMARKS
MANISTIQUE     CLOUDY    61  55  81 NW8G17    29.73S
ESCANABA       CLOUDY    68  58  70 N7        29.75S
MENOMINEE      CLOUDY    70  57  63 NW8G18    29.78S
SAWYER-GWINN   CLOUDY    61  55  82 NW15G23   29.77R
$$
MIZ001>003-009>011-084-182000-
WESTERN UPPER MICHIGAN

CITY           SKY/WX    TMP DP  RH WIND       PRES   REMARKS
IRON MOUNTAIN  CLOUDY    69  55  60 NW15      29.78R
HOUGHTON       CLOUDY    63  55  75 W15G21    29.79R
COPPER HARBOR    N/A     62  55  77 N17G29    29.75R
IRONWOOD       CLOUDY    66  56  70 NW8       29.86R
$$

ABBREVIATIONS USED IN REMARKS
   TC - TEMPERATURE IN CELSIUS
  WCI - WIND CHILL INDEX
   HX - HEAT INDEX
  VSB - VISIBILITY





USA.gov is the U.S. government's official web portal to all federal, state and local government web resources and services.